• MPC Preparation (Info)

  • MPEC 2019-G91 : 2019 GL3

    The following Minor Planet Electronic Circular may be linked-to from your own Web pages, but must not otherwise be redistributed electronically.

    A form allowing access to any MPEC is at the bottom of this page.


    Read MPEC 2019-G90 Read MPEC 2019-G92


    M.P.E.C. 2019-G91                                Issued 2019 Apr. 8, 18:09 UT
    
         The Minor Planet Electronic Circulars contain information on unusual
             minor planets and routine data on comets.  They are published
        on behalf of Division F of the International Astronomical Union by the
              Minor Planet Center, Smithsonian Astrophysical Observatory,
                              Cambridge, MA 02138, U.S.A.
    
                 Prepared using the Tamkin Foundation Computer Network
    
                                  MPC@CFA.HARVARD.EDU
                URL https://www.minorplanetcenter.net/    ISSN 1523-6714
    
                                       2019 GL3
    
    Observations:
         K19G03L  C2019 04 03.25084210 55 37.598+23 09 07.70         17.49GVEG091F51
         K19G03L  C2019 04 03.26376410 56 41.674+22 52 23.50         17.58GVEG091F51
         K19G03L  C2019 04 03.27675110 57 45.190+22 35 37.45         17.86GVEG091F51
         K19G03L  C2019 04 03.28999010 58 49.069+22 18 34.92               VEG091F51
         K19G03L* C2019 04 06.24635 12 44 28.86 -09 12 04.7          18.9 GVEG091703
         K19G03L  C2019 04 06.25169 12 44 32.77 -09 13 26.8          19.4 GVEG091703
         K19G03L  C2019 04 06.25702 12 44 36.62 -09 14 49.7          18.8 GVEG091703
         K19G03L  C2019 04 06.26235 12 44 40.38 -09 16 10.4          18.7 GVEG091703
         K19G03L KC2019 04 06.37222112 46 19.06 -09 35 53.8          19.5 GVEG091474
         K19G03L KC2019 04 06.37404012 46 20.42 -09 36 21.0          19.4 GVEG091474
         K19G03L KC2019 04 06.37494912 46 21.07 -09 36 33.6          19.1 GVEG091474
         K19G03L KC2019 04 06.37567612 46 21.60 -09 36 44.9          19.1 GVEG091474
         K19G03L  C2019 04 06.39448512 46 27.752-09 47 37.26         19.01GVEG091F51
         K19G03L  C2019 04 06.39706212 46 29.448-09 48 14.15         18.79GVEG091F51
         K19G03L  C2019 04 06.40693412 46 35.910-09 50 35.20         18.89GVEG091F51
         K19G03L  C2019 04 06.40950412 46 37.586-09 51 11.79         18.77GVEG091F51
         K19G03L  C2019 04 06.42194212 46 45.669-09 54 08.01         19.10GVEG091F51
         K19G03L  C2019 04 06.43464412 46 53.874-09 57 06.47               VEG091F51
         K19G03L KC2019 04 06.52600312 48 04.15 -10 12 06.0          19.1 GVEG091474
         K19G03L KC2019 04 06.52724012 48 04.95 -10 12 22.8          19.1 GVEG091474
         K19G03L KC2019 04 06.52910112 48 06.15 -10 12 47.9          19.2 GVEG091474
         K19G03L KC2019 04 06.53034112 48 06.96 -10 13 04.8          19.0 GVEG091474
         K19G03L  C2019 04 06.60168 12 49 03.19 -10 35 46.5          19.7 RrEG091P93
         K19G03L  C2019 04 06.60399 12 49 04.59 -10 36 16.9          19.7 RrEG091P93
         K19G03L  C2019 04 06.60860 12 49 07.43 -10 37 16.5          19.3 RrEG091P93
         K19G03L  C2019 04 06.61322 12 49 10.26 -10 38 17.0          19.7 RrEG091P93
         K19G03L KC2019 04 06.89934312 52 33.58 -11 36 46.6          19.2 VqEG091I93
         K19G03L KC2019 04 06.90644012 52 37.60 -11 38 09.6          18.7 VqEG091I93
         K19G03L KC2019 04 06.91112912 52 40.29 -11 39 03.3          19.0 VqEG091I93
         K19G03L  C2019 04 06.93009 12 52 47.53 -11 43 01.7          19.5 VVEG091033
         K19G03L  C2019 04 06.93124 12 52 48.18 -11 43 14.7          19.4 VVEG091033
         K19G03L  C2019 04 06.93237 12 52 48.79 -11 43 27.6          19.1 VVEG091033
         K19G03L  C2019 04 06.93352 12 52 49.44 -11 43 40.5          18.9 VVEG091033
         K19G03L  C2019 04 06.93465 12 52 50.09 -11 43 53.6          19.0 VVEG091033
         K19G03L  C2019 04 06.93580 12 52 50.71 -11 44 06.3          18.9 VVEG091033
         K19G03L KC2019 04 06.98307612 53 16.06 -11 52 38.9          19.5 GVEG091L01
         K19G03L KC2019 04 06.98398412 53 16.54 -11 52 49.0          19.4 GVEG091L01
         K19G03L KC2019 04 06.98476112 53 16.98 -11 52 57.6          19.3 GVEG091L01
         K19G03L KC2019 04 06.98580012 53 17.54 -11 53 09.1          19.3 GVEG091L01
         K19G03L KC2019 04 06.98684012 53 18.10 -11 53 20.7          19.4 GVEG091L01
         K19G03L KC2019 04 07.00728 12 53 30.16 -11 57 16.7          20.4 GVEG091K87
         K19G03L KC2019 04 07.00753 12 53 30.28 -11 57 19.6          20.0 GVEG091K87
         K19G03L KC2019 04 07.00777 12 53 30.41 -11 57 22.1          19.8 GVEG091K87
         K19G03L  C2019 04 07.22311 12 55 50.69 -12 34 03.5          19.3 GVEG091I52
         K19G03L  C2019 04 07.22335 12 55 50.80 -12 34 05.6          18.9 GVEG091I52
         K19G03L  C2019 04 07.22359 12 55 50.91 -12 34 08.4          19.3 GVEG091I52
         K19G03L  C2019 04 07.22384 12 55 51.03 -12 34 10.5          19.7 GVEG091I52
         K19G03L  C2019 04 07.38358 12 57 17.414-12 59 27.93         19.8 wUEG091F51
         K19G03L  C2019 04 07.39542 12 57 22.519-13 01 20.66         19.6 wUEG091F51
         K19G03L  C2019 04 07.41909 12 57 32.618-13 05 04.03         19.5 wUEG091F51
         K19G03L KC2019 04 07.93589 13 01 45.75 -14 19 31.5          19.4 RoEG091K88
         K19G03L KC2019 04 07.93960 13 01 47.13 -14 19 59.6          19.5 RoEG091K88
         K19G03L KC2019 04 07.94329 13 01 48.52 -14 20 28.0          19.4 RoEG091K88
         K19G03L  C2019 04 08.22595 13 03 56.88 -14 54 14.0          19.8 GVEG091I52
         K19G03L  C2019 04 08.22942 13 03 58.04 -14 54 38.1                VEG091I52
         K19G03L  C2019 04 08.23118 13 03 58.68 -14 54 51.0          20.8 GVEG091I52
         K19G03L  C2019 04 08.23159 13 03 58.85 -14 54 53.9                VEG091I52
    
    Observer details:
    033 Karl Schwarzschild Observatory, Tautenburg.  Observers F. Ludwig,
        B. Stecklum.  Measurer B. Stecklum.  1.34-m f/3 Schmidt + CCD.
    474 Mount John Observatory, Lake Tekapo.  Observers A. C. Gilmore,
        P. M. Kilmartin.  Measurer P. M. Kilmartin.  1.0-m f/7.7 reflector + CCD.
    703 Catalina Sky Survey.  Observer H. Groeller.  Measurers B. M. Africano,
        E. J. Christensen, G. A. Farneth, D. C. Fuls, A. R. Gibbs, A. D. Grauer,
        H. Groeller, R. A. Kowalski, S. M. Larson, G. J. Leonard, T. A. Pruyne,
        R. L. Seaman, F. C. Shelly.  0.68-m Schmidt + 10K CCD.
    F51 Pan-STARRS 1, Haleakala.  Observers J. Bulger, K. Chambers, T. Lowe,
        E. Magnier, A. Schultz, M. Willman.  Measurers S. Chastel, M. Huber,
        Y. Ramanjooloo, R. Wainscoat, R. Weryk, K. Chambers, T. de Boer,
        L. Denneau, J. Fairlamb, H. Flewelling, C.-C. Lin, E. Magnier.  1.8-m
        Ritchey-Chretien + CCD.
    I52 Steward Observatory, Mt. Lemmon Station.  Observer H. Groeller.
        Measurers B. M. Africano, E. J. Christensen, G. A. Farneth, D. C. Fuls,
        A. R. Gibbs, A. D. Grauer, H. Groeller, R. A. Kowalski, S. M. Larson,
        G. J. Leonard, T. A. Pruyne, R. L. Seaman, F. C. Shelly.  1.0-m reflector
        + CCD.
    I93 St Pardon de Conques.  Observer F. Losse.  0.40-m f/3.7 reflector + CCD.
    K87 Dettelbach Vineyard Observatory.  Observer B. Haeusler.  0.30-m
        Schmidt-Cassegrain + CCD.
    K88 GINOP-KHK, Piszkesteto.  Observer J. Vinko.  Measurer K. Sarneczky.
        0.60-m Schmidt + CCD.
    L01 Visnjan Observatory, Tican.  Observer K. Korlevic.  1.0-m f/2.9 reflector
        + CCD.
    P93 Space Tracking and Communications Center, JAXA.  Observers K. Nishiyama,
        T. Fujiwara.  1.0-m f/3.0 reflector + CCD.
    
    Orbital elements:
    2019 GL3                                                 Earth MOID = 0.0050 AU
    Epoch 2019 Apr. 27.0 TT = JDT 2458600.5                 MPC
    M  28.57874              (2000.0)            P               Q
    n   0.45170988     Peri.  125.96563     -0.77179265     -0.63557395
    a   1.6822724      Node    14.60485     +0.55560702     -0.68899585
    e   0.4750090      Incl.    4.44484     +0.30925225     -0.34832525
    P   2.18           H   26.6           G   0.15           U   6
    Residuals in seconds of arc
    190403 F51  0.3-  0.3+    190406 474  0.1-  0.1+    190406 L01  0.0   0.0
    190403 F51  0.0   0.0     190406 474  0.2-  0.1+    190406 L01  0.1+  0.2-
    190403 F51  0.1+  0.1-    190406 474  0.1-  0.0     190407 K87  1.0-  0.2+
    190403 F51  0.1+  0.2-    190406 P93  0.8+  0.0     190407 K87  1.2-  0.0
    190406 703  0.3-  0.6+    190406 P93  0.6+  0.2-    190407 K87  1.2-  0.1+
    190406 703  0.6+  0.4+    190406 P93  0.8+  0.2+    190407 I52  0.0   0.2-
    190406 703  0.9+  0.9-    190406 P93  1.0+  0.4-    190407 I52  0.1-  0.1+
    190406 703  0.1+  0.4-    190406 I93  0.2-  0.5+    190407 I52  0.2-  0.2-
    190406 474  0.2-  0.0     190406 I93  0.3-  0.3-    190407 I52  0.2-  0.2+
    190406 474  0.2+  0.5-    190406 I93  0.4+  0.2+    190407 F51  0.1+  0.1-
    190406 474  0.0   0.3+    190406 033  0.0   0.2-    190407 F51  0.0   0.0
    190406 474  0.0   0.3-    190406 033  0.1+  0.1-    190407 F51  0.0   0.1-
    190406 F51  0.1-  0.0     190406 033  0.2-  0.2-    190407 K88  0.7+  0.2-
    190406 F51  0.0   0.0     190406 033  0.1-  0.1-    190407 K88  0.4+  0.3+
    190406 F51  0.1-  0.0     190406 033  0.2+  0.4-    190407 K88  0.5+  0.3+
    190406 F51  0.1-  0.0     190406 033  0.1-  0.1-    190408 I52  0.6-  0.3-
    190406 F51  0.0   0.1+    190406 L01  0.2-  0.2+    190408 I52  0.5-  0.4+
    190406 F51  0.0   0.2+    190406 L01  0.3-  0.1+    190408 I52  0.4+  0.0
    190406 474  0.1-  0.1+    190406 L01  0.0   0.1+    190408 I52  0.9+  0.0
    
    Ephemeris:
    2019 GL3                 a,e,i = 1.68, 0.48, 4                   q = 0.8832
    Date    TT    R. A. (2000) Decl.     Delta      r     Elong.  Phase     V
    2019 03 09    01 49 52.1 +27 02 06   0.1519  0.9005    49.1   123.6    27.4
    ...
    2019 03 24    02 17 19.9 +32 31 13   0.05867 0.9549    43.3   134.2    26.5
    ...
    2019 04 01    05 16 33.4 +50 30 12   0.01327 0.9954    73.7   105.6    21.1
    ...
    2019 04 07    12 53 28.5 -11 51 23   0.02903 1.0297   174.3     5.5    19.4
    2019 04 08    13 02 13.3 -14 23 51   0.03488 1.0357   172.5     7.3    19.9
    2019 04 09    13 08 34.0 -16 11 10   0.04083 1.0417   171.1     8.6    20.3
    ...
    2019 04 15    13 26 25.6 -20 51 16   0.07776 1.0794   168.6    10.6    21.9
    ...
    2019 04 23    13 34 33.3 -22 30 25   0.1297  1.1324   168.0    10.6    23.1
    ...
    2019 05 08    13 42 08.7 -22 52 41   0.2382  1.2372   161.3    15.2    24.8
    
    A. U. Tomatic                (C) Copyright 2019 MPC           M.P.E.C. 2019-G91
    

    Read MPEC 2019-G90 Read MPEC 2019-G92


    MPEC number:

    Enter an MPEC number in one of the following forms:

    • 1997-B01 (the full form)
    • J97B01 (the packed version of the full form)
    • B01 (the abbreviated form)